Weather History for Pompano Beach, FL

Change the Weather History Date:

Monday, August 19, 2013

  Actual Average Record
Temperature  
Mean Temperature 85 °F -  
Max Temperature 91 °F 91 °F 96 °F (1987)
Min Temperature 80 °F 74 °F 61 °F (1976)
Cooling Degree Days 20    
Growing Degree Days 35 (Base 50)    
Moisture  
Dew Point 75 °F    
Average Humidity 73    
Maximum Humidity 84    
Minimum Humidity 63    
Precipitation  
Precipitation 0.02 in - - ()
Sea Level Pressure  
Sea Level Pressure 30.03 in    
Wind  
Wind Speed 8 mph (East)    
Max Wind Speed 15 mph    
Max Gust Speed 21 mph    
Visibility 10 miles    
Events      
Averages and records for this station are not official NWS values.
T = Trace of Precipitation, MM = Missing Value Source: NWS Daily Summary

Daily Weather History Graph

Daily Weather History Graph

Search for Another Location

Airport:

Trip Planner

Search our weather history database for the weather conditions in past years. The results will help you decide how hot, cold, wet, or windy it might be!

Date:

Astronomy

Aug. 19, 2013 Rise Set
Actual Time 6:54 AM EDT 7:52 PM EDT
Civil Twilight 6:30 AM EDT 8:16 PM EDT
Nautical Twilight 6:02 AM EDT 8:44 PM EDT
Astronomical Twilight 5:33 AM EDT 9:13 PM EDT
Moon 6:42 PM EDT (8/19) 5:15 AM EDT (8/19)
Length of Visible Light 13h 45m
Length of Day
12h 57m
Waxing Gibbous, 97% of the Moon is Illuminated
Aug 19
Waxing Gibbous
Aug 20
Full
Aug 28
Last Quarter
Sep 5
New
Sep 12
First Quarter

Hourly Weather History & Observations

Time (EDT) Temp. Heat Index Dew Point Humidity Pressure Visibility Wind Dir Wind Speed Gust Speed Precip Events Conditions
12:53 AM 84.0 °F 93.7 °F 77.0 °F 79% 30.07 in 10.0 mi SSE 3.5 mph - N/A   Partly Cloudy
1:18 AM 84.2 °F 94.1 °F 77.0 °F 79% 30.07 in 10.0 mi Calm Calm - N/A   Mostly Cloudy
1:53 AM 81.0 °F 86.7 °F 75.0 °F 82% 30.06 in 10.0 mi WNW 4.6 mph - N/A   Overcast
2:34 AM 80.6 °F 86.2 °F 75.2 °F 84% 30.04 in 10.0 mi East 6.9 mph - N/A   Scattered Clouds
2:53 AM 81.0 °F 86.7 °F 75.0 °F 82% 30.04 in 10.0 mi East 5.8 mph - N/A   Partly Cloudy
3:53 AM 82.9 °F 90.8 °F 75.9 °F 79% 30.03 in 10.0 mi East 9.2 mph - N/A   Unknown
4:53 AM 82.9 °F 90.2 °F 75.0 °F 77% 30.02 in 10.0 mi East 11.5 mph - N/A   Unknown
5:53 AM 82.9 °F 90.8 °F 75.9 °F 79% 30.02 in 10.0 mi East 11.5 mph - N/A   Unknown
6:53 AM 82.9 °F 90.8 °F 75.9 °F 79% 30.01 in 10.0 mi East 15.0 mph - N/A   Unknown
7:53 AM 84.0 °F 91.9 °F 75.0 °F 74% 30.01 in 10.0 mi ESE 15.0 mph 20.7 mph N/A   Scattered Clouds
8:53 AM 86.0 °F 95.1 °F 75.0 °F 70% 30.02 in 10.0 mi East 13.8 mph - N/A   Scattered Clouds
9:53 AM 87.1 °F 95.4 °F 73.9 °F 65% 30.04 in 10.0 mi ESE 13.8 mph - N/A   Scattered Clouds
10:53 AM 88.0 °F 98.5 °F 75.9 °F 67% 30.05 in 10.0 mi ESE 13.8 mph - N/A   Scattered Clouds
11:53 AM 90.0 °F 101.3 °F 75.9 °F 63% 30.05 in 10.0 mi ESE 13.8 mph - N/A   Scattered Clouds
12:53 PM 89.1 °F 100.2 °F 75.9 °F 65% 30.04 in 10.0 mi ESE 13.8 mph 20.7 mph N/A   Scattered Clouds
1:53 PM 89.1 °F 100.2 °F 75.9 °F 65% 30.03 in 10.0 mi East 13.8 mph - N/A   Scattered Clouds
2:53 PM 89.1 °F 99.1 °F 75.0 °F 63% 30.02 in 10.0 mi East 13.8 mph - N/A   Scattered Clouds
3:53 PM 88.0 °F 98.5 °F 75.9 °F 67% 30.00 in 10.0 mi ESE 12.7 mph - N/A   Scattered Clouds
4:53 PM 87.1 °F 95.4 °F 73.9 °F 65% 29.99 in 10.0 mi ESE 12.7 mph - N/A   Scattered Clouds
5:53 PM 84.9 °F 94.1 °F 75.9 °F 74% 29.99 in 10.0 mi East 11.5 mph - 0.02 in   Scattered Clouds
6:53 PM 86.0 °F 95.1 °F 75.0 °F 70% 29.99 in 10.0 mi ESE 8.1 mph - N/A   Unknown
7:53 PM 84.0 °F 91.2 °F 73.9 °F 72% 29.99 in 10.0 mi East 5.8 mph - N/A   Unknown
8:53 PM 84.0 °F 91.2 °F 73.9 °F 72% 30.01 in 10.0 mi East 4.6 mph - N/A   Unknown
9:53 PM 82.9 °F 90.2 °F 75.0 °F 77% 30.02 in 10.0 mi East 5.8 mph - N/A   Unknown
10:53 PM 84.0 °F 91.9 °F 75.0 °F 74% 30.04 in 10.0 mi East 8.1 mph - N/A   Scattered Clouds
11:53 PM 82.9 °F 90.2 °F 75.0 °F 77% 30.04 in 10.0 mi East 5.8 mph - N/A   Partly Cloudy